Showing default

YIJIAN, 41899

Orbit data source: Space-Track

YIJIAN, 41899 is a payload satellite owned by SECM (CN) in SSO that was launched on Wed, 21 Dec 2016 UTC via a CHANG ZHENG 2D launch vehicle from the Jiuquan Satellite Launch Center, China (JSC). Payload-class satellites include a variety of spacecraft equipped with specific instruments for various scientific and technological missions. These include communications satellites like Starlink; space stations such as the ISS; scientific satellites like the Hubble; Earth observation satellites from companies like Planet Labs, Umbra, and HawkEye 360; GPS; miniature CubeSats for education and research; and military/defense satellites.

Loading next visibility...
Identifier
41899, 2016-081B
Orbit
SSO
Country
Flag of CNCN / PRC
Related business
Manufacturer
SECM
Mission
Operational Civil Imaging
Bus & Motor
CX-6, Unknown motor
Mass
60 kg wet, 60 kg dry
Launch date (UTC)
2016-12-21 (9 years ago)
Launch vehicle
CHANG ZHENG 2D
Launch site
Jiuquan Satellite Launch Center, China (JSC)
Object type
Payload
Rocket body
Debris
Shape & HBR
Box + 2 Pan, 0.5 m
Radar Cross Section
0.388 m², Medium (>0.1 m² and < 1m²)

Expand to show TLE details & history
Last TLE update: 7 hours ago

TLE from 7 hours ago
0 YIJIAN
1 41899U 16081B   25295.20565656  .00001470  00000-0  31392-3 0  9998
2 41899  98.5231 281.0173 0020401 328.2200  31.7767 14.60301699469859
Epoch: 2025-10-22T04:56Z
TLE epoch observation values (Epoch: 2025-10-22T04:56:08.726Z)
Latitude
-0.00001°
Longitude
176.09834°
Altitude
682.919 km
Speed
7.522 km/s
True Right ascension
18h 44m 04s
True Declination
0° 00' 00"
Sunlit
Object was in daylight at epoch
Visualization orbit readout
Latitude
Unknown
Longitude
Unknown
Altitude
Unknown
Speed
Unknown
Apparent Right ascension
Unknown
Apparent Declination
Unknown
Sunlit
N/A
Visualization observer readout
Local Sidereal Time
06:47:26
Azimuth
Unknown
Elevation
Unknown
Doppler factor
Unknown
Orbital elements
Apogee altitude
703.714 km
Perigee altitude
674.878 km
Semi-major axis
7,067.433 km
Eccentricity
0.00204
Inclination
98.5231°
RAAN
281.0173°
Arg. of periapsis
328.22°
True anomaly
31.90008°
Mean anomaly
31.7767°
Eccentric anomaly
31.83836°
Mean motion
3.65301 °/min
Orbital period
98.55 mins
BSTAR
0.00031392
Loading maneuver chart data...
Computing Atmospheric mass density...
Loading historical data...
Loading historical data...
Loading historical data...
Loading historical data...
Loading historical data...
Loading historical data...
Loading historical data...
Other satellites on launch #81 in the year 2016 (2016-12-21 UTC)

Documentation

Showing up to 5 results
|